Retour au catalogue

ESSAIM-1

ActifMilitaireSSO
NORAD 28494·PAYLOAD·🇫🇷 France

Lancé Dec 18, 2004 depuis Guiana Space Centre

Loading…

Prochains Passages (prochaines 24 heures)

TLE

FraisSource: Space-Track

Époque: Sep 14, 2026, 15:04 UTC

1 28494U 04049C   26257.62827532  .00000755  00000-0  92189-4 0  9991
2 28494  98.2886 130.5742 0001687  92.1029 268.0379 14.86453994171576

Suivez ESSAIM-1 en temps réel avec AllMySat

Download on the App Store